If you wish to contribute or participate in the discussions about articles you are invited to join SKYbrary as a registered user

 Actions

Sendai Airport

From SKYbrary Wiki

RJSS
Airport
ICAO: RJSS – IATA: SDJ
Summary
Name Sendai Airport
Region Asia and Pacific
Territory Japan JP.gif
Location Natori, Sendai Metropolis
Serving Sendai
Elevation 1.829 m
6 ft1.829 m
Coordinates 38° 8' 23.00" N, 140° 55' 1.00" E
Runways
Designator Length Width Surface ROPS
9/27 3000 m9,842.52 ft
46 m150.919 ft
ASP yes/yes
12/30 1201 m3,940.289 ft
46 m150.919 ft
ASP yes/yes


METAR
Observation RJSS 150800Z 11005KT 070V130 9999 FEW025 24/20 Q1010
Station Sendai Airport
Date/Time 15 September 2019 08:00:00
Wind direction 110°
Wind speed 05 kts
Lowest cloud amount few clouds
Temperature 24°C
Dew point 20°C
Humidity 78%
QNH 1010 hPa
Weather condition n/a

Sendai Airport is an international airport located in the city of Natori, Miyagi, 13.6 km7.343 nm
13,600 m
44,619.423 ft
south southeast of Sendai metropolis, Sendai, Japan.

Climatology

Humid Sub-tropical climate (Köppen climate classification Cfa)

Maps

Terrain

Loading map...

Airport Layout

Loading map...


Accidents & Serious Incidents at or in vicinity of RJSS

None on SKYbrary